KD8BMB Weather Reports


time (UTC)temp
F
wind
direction
speed
knots
gust
knots
rain 1hr
in
rain 24hr
in
rain mn
in
humidity
%
barometer
mb
20260505034907 68 233 4.3 5.2 0.00 0.00 0.00 67 997.7
20260505034403 67 303 0.0 0.0 0.00 0.00 0.00 67 997.7
20260505033901 67 191 4.3 5.2 0.00 0.00 0.00 68 997.5
20260505033357 67 238 6.1 9.6 0.00 0.00 0.00 67 997.4
20260505032856 67 277 2.6 4.3 0.00 0.00 0.00 68 997.4
20260505032352 67 206 6.1 7.8 0.00 0.00 0.00 68 997.5
20260505031849 67 246 2.6 4.3 0.00 0.00 0.00 68 997.3
20260505031346 67 211 0.9 1.7 0.00 0.00 0.00 68 997.1
20260505030843 67 205 0.9 1.7 0.00 0.00 0.00 68 997.1
20260505030338 67 253 1.7 2.6 0.00 0.00 0.00 67 997.3
20260505025834 67 279 2.6 5.2 0.00 0.00 0.00 68 997.2
20260505025332 67 215 0.9 0.9 0.00 0.00 0.00 67 997.2
20260505024830 67 286 1.7 4.3 0.00 0.00 0.00 67 997.5
20260505024328 68 187 3.5 4.3 0.00 0.00 0.00 66 997.7
20260505023825 67 195 2.6 4.3 0.00 0.00 0.00 67 997.7
20260505023321 67 252 1.7 2.6 0.00 0.00 0.00 66 997.6
20260505022819 67 320 4.3 6.1 0.00 0.00 0.00 67 997.7
20260505022315 67 228 1.7 1.7 0.00 0.00 0.00 66 997.6
20260505021813 68 193 0.9 1.7 0.00 0.00 0.00 65 997.4
20260505021310 68 264 3.5 6.1 0.00 0.00 0.00 65 997.5
20260505020805 68 89 2.6 2.6 0.00 0.00 0.00 64 997.6
20260505020301 67 355 4.3 6.1 0.00 0.00 0.00 64 997.5
20260505015758 68 240 2.6 4.3 0.00 0.00 0.00 64 997.5
20260505015255 68 150 0.9 0.9 0.00 0.00 0.00 64 997.5
20260505014752 68 165 3.5 4.3 0.00 0.00 0.00 63 997.3
20260505014250 68 43 0.9 1.7 0.00 0.00 0.00 63 997.3
20260505013746 68 137 1.7 1.7 0.00 0.00 0.00 61 997.5
20260505013243 67 170 2.6 2.6 0.00 0.00 0.00 60 997.3
20260505012741 66 127 0.0 0.0 0.00 0.00 0.00 56 997.3
20260505012238 66 265 0.0 0.0 0.00 0.00 0.00 55 997.1
20260505011734 65 327 0.0 0.0 0.00 0.00 0.00 55 997.2
20260505011231 66 318 0.0 0.0 0.00 0.00 0.00 54 996.9
20260505010727 66 348 0.0 0.0 0.00 0.00 0.00 54 996.8
20260505010223 67 296 0.0 0.0 0.00 0.00 0.00 51 996.9
20260505005720 68 274 0.0 0.0 0.00 0.00 0.00 51 997.0
20260505005217 68 306 0.0 0.0 0.00 0.00 0.00 50 996.8
20260505004714 68 329 0.0 0.0 0.00 0.00 0.00 49 997.0
20260505004211 69 292 0.0 0.0 0.00 0.00 0.00 48 997.0
20260505003708 70 294 0.0 0.0 0.00 0.00 0.00 47 996.8
20260505003206 71 243 0.0 0.0 0.00 0.00 0.00 44 997.1
20260505002702 71 269 0.0 0.0 0.00 0.00 0.00 44 997.0
20260505002159 72 222 0.0 0.0 0.00 0.00 0.00 44 997.1
20260505001656 72 281 0.0 0.9 0.00 0.00 0.00 43 996.9
20260505001154 73 289 2.6 4.3 0.00 0.00 0.00 42 997.0
20260505000651 73 269 0.9 1.7 0.00 0.00 0.00 42 997.1
20260505000149 73 293 2.6 4.3 0.00 0.00 0.00 42 997.1
20260504235644 73 258 1.7 1.7 0.00 0.00 0.00 44 997.3
20260504235141 73 283 0.9 1.7 0.00 0.00 0.00 44 997.1
20260504234639 73 242 1.7 1.7 0.00 0.00 0.00 44 997.1
20260504234136 74 268 3.5 4.3 0.00 0.00 0.00 44 997.2
20260504233631 74 205 2.6 4.3 0.00 0.00 0.00 43 997.0
20260504233127 75 243 5.2 7.0 0.00 0.00 0.00 41 997.1
20260504232626 75 225 3.5 4.3 0.00 0.00 0.00 42 997.2
20260504232122 75 276 3.5 4.3 0.00 0.00 0.00 42 997.5
20260504231619 75 246 6.1 8.7 0.00 0.00 0.00 42 997.2
20260504231115 75 272 2.6 4.3 0.00 0.00 0.00 44 997.4
20260504230611 76 237 0.9 0.9 0.00 0.00 0.00 43 997.3
20260504230110 76 275 3.5 5.2 0.00 0.00 0.00 42 997.3
20260504225608 76 296 8.7 9.6 0.00 0.00 0.00 41 997.4
20260504225104 76 253 6.1 8.7 0.00 0.00 0.00 40 997.3
20260504224601 76 225 2.6 2.6 0.00 0.00 0.00 39 997.5
20260504224058 76 263 0.9 1.7 0.00 0.00 0.00 40 997.7
20260504223555 77 255 3.5 5.2 0.00 0.00 0.00 38 997.6
20260504223050 77 298 1.7 1.7 0.00 0.00 0.00 39 997.7
20260504222547 77 243 4.3 5.2 0.00 0.00 0.00 38 997.7
20260504222045 76 267 0.9 1.7 0.00 0.00 0.00 37 997.9
20260504221542 76 188 8.7 13.0 0.00 0.00 0.00 37 997.8
20260504221039 76 357 6.1 7.0 0.00 0.00 0.00 36 998.1
20260504220535 77 249 0.9 2.6 0.00 0.00 0.00 39 998.1
20260504220032 77 256 1.7 1.7 0.00 0.00 0.00 37 998.1
20260504215529 76 245 3.5 7.0 0.00 0.00 0.00 37 998.3
20260504215026 76 226 6.1 7.8 0.00 0.00 0.00 37 998.1
20260504214522 77 309 3.5 6.1 0.00 0.00 0.00 36 998.3
20260504214018 78 129 1.7 2.6 0.00 0.00 0.00 36 998.2
20260504213515 77 132 4.3 7.0 0.00 0.00 0.00 35 998.3
20260504213013 78 259 0.9 0.9 0.00 0.00 0.00 35 998.3
20260504212508 77 232 1.7 4.3 0.00 0.00 0.00 34 998.3
20260504212006 76 227 1.7 2.6 0.00 0.00 0.00 35 998.4
20260504211502 75 193 0.9 1.7 0.00 0.00 0.00 36 998.6
20260504211000 75 208 4.3 7.0 0.00 0.00 0.00 35 998.5
20260504210456 75 282 3.5 5.2 0.00 0.00 0.00 35 998.7
20260504205953 75 217 0.0 0.9 0.00 0.00 0.00 36 998.6
20260504205451 76 217 3.5 5.2 0.00 0.00 0.00 33 998.7
20260504204949 76 281 1.7 4.3 0.00 0.00 0.00 33 998.4
20260504204447 76 297 9.6 11.3 0.00 0.00 0.00 33 998.8
20260504203946 76 257 2.6 2.6 0.00 0.00 0.00 33 998.4
20260504203443 76 299 0.0 0.9 0.00 0.00 0.00 34 998.5
20260504202939 77 289 9.6 13.9 0.00 0.00 0.00 31 998.5
20260504202436 77 211 0.9 1.7 0.00 0.00 0.00 31 998.6
20260504201932 77 243 3.5 5.2 0.00 0.00 0.00 31 998.6
20260504201430 76 238 4.3 7.0 0.00 0.00 0.00 31 998.5
20260504200927 77 219 4.3 7.0 0.00 0.00 0.00 32 998.6
20260504200424 76 283 8.7 12.2 0.00 0.00 0.00 31 998.8
20260504195921 76 280 0.0 0.9 0.00 0.00 0.00 32 998.9
20260504195416 76 140 8.7 12.2 0.00 0.00 0.00 30 998.7
20260504194913 76 220 3.5 5.2 0.00 0.00 0.00 32 999.0
20260504194409 76 274 0.9 2.6 0.00 0.00 0.00 31 999.1
20260504193905 75 293 2.6 4.3 0.00 0.00 0.00 32 998.9
20260504193403 76 231 5.2 7.0 0.00 0.00 0.00 31 999.6
20260504192901 76 245 10.4 12.2 0.00 0.00 0.00 30 999.0
20260504192358 76 311 4.3 7.8 0.00 0.00 0.00 31 999.1
20260504191857 76 320 9.6 13.0 0.00 0.00 0.00 30 999.4
20260504191354 76 303 3.5 7.0 0.00 0.00 0.00 31 999.2
20260504190849 76 294 5.2 8.7 0.00 0.00 0.00 31 999.4
20260504190346 76 226 2.6 7.0 0.00 0.00 0.00 31 999.4
20260504185842 76 240 4.3 6.1 0.00 0.00 0.00 31 999.4
20260504185339 76 237 4.3 6.1 0.00 0.00 0.00 32 999.5
20260504184835 77 317 0.0 0.0 0.00 0.00 0.00 32 999.6
20260504184332 77 188 2.6 4.3 0.00 0.00 0.00 32 999.5
20260504183827 76 215 0.9 4.3 0.00 0.00 0.00 32 999.7
20260504183325 75 187 7.0 9.6 0.00 0.00 0.00 32 1000.0
20260504182822 76 302 5.2 7.0 0.00 0.00 0.00 31 999.9
20260504182320 75 237 6.1 9.6 0.00 0.00 0.00 31 999.8
20260504181817 75 210 11.3 14.8 0.00 0.00 0.00 31 999.7
20260504181314 75 257 4.3 12.2 0.00 0.00 0.00 32 999.8
20260504180812 75 256 5.2 7.8 0.00 0.00 0.00 34 1000.3
20260504180305 75 260 2.6 5.2 0.00 0.00 0.00 34 1000.2
20260504175803 74 306 6.1 7.8 0.00 0.00 0.00 33 1000.1
20260504175259 74 254 6.1 8.7 0.00 0.00 0.00 33 1000.3
20260504174758 74 216 7.0 8.7 0.00 0.00 0.00 32 1000.1
20260504174255 74 279 8.7 11.3 0.00 0.00 0.00 33 1000.3
20260504173751 74 201 7.8 13.0 0.00 0.00 0.00 33 1000.4
20260504173248 74 247 1.7 2.6 0.00 0.00 0.00 33 1000.6
20260504172745 75 226 4.3 6.1 0.00 0.00 0.00 33 1000.6
20260504172242 75 70 0.0 0.0 0.00 0.00 0.00 34 1000.4
20260504171738 74 165 2.6 4.3 0.00 0.00 0.00 36 1000.8
20260504171235 74 252 6.1 8.7 0.00 0.00 0.00 34 1000.8
20260504170732 74 206 3.5 4.3 0.00 0.00 0.00 39 1000.8
20260504170229 74 225 2.6 2.6 0.00 0.00 0.00 38 1000.9
20260504160148 70 258 0.9 0.9 0.00 0.00 0.00 47 1002.0
20260504151115 67 251 0.0 0.9 0.00 0.00 0.00 57 1002.7
20260504150613 66 184 1.7 4.3 0.00 0.00 0.00 59 1002.9
20260504150110 66 280 4.3 6.1 0.00 0.00 0.00 58 1002.9
20260504141038 62 205 1.7 1.7 0.00 0.00 0.00 63 1003.4
20260504140535 62 262 0.9 1.7 0.00 0.00 0.00 65 1003.2
20260504130459 58 317 1.7 1.7 0.00 0.00 0.00 70 1003.5
20260504110346 48 293 0.9 0.9 0.00 0.00 0.00 86 1003.6
20260504100304 47 229 0.0 0.0 0.00 0.00 0.00 86 1004.0
20260504081657 49 313 0.0 0.0 0.00 0.00 0.00 81 1004.5
20260504081153 49 199 0.9 0.9 0.00 0.00 0.00 81 1004.7
20260504080650 49 188 0.0 0.0 0.00 0.00 0.00 80 1004.4
20260504080146 49 269 0.0 0.0 0.00 0.00 0.00 80 1004.6
20260504070114 50 220 0.9 1.7 0.00 0.00 0.00 77 1005.4
20260504050503 51 306 0.0 0.0 0.00 0.00 0.00 73 1006.5
20260504050000 51 256 1.7 1.7 0.00 0.00 0.00 72 1006.5
20260504045455 51 327 0.0 0.9 0.00 0.00 0.00 72 1006.6
20260504044952 51 133 1.7 4.3 0.00 0.00 0.00 72 1006.7
20260504044449 51 218 0.9 1.7 0.00 0.00 0.00 73 1006.6
20260504043946 51 212 2.6 2.6 0.00 0.00 0.00 72 1006.5
20260504043443 51 184 0.9 0.9 0.00 0.00 0.00 73 1006.3
20260504042941 51 201 1.7 2.6 0.00 0.00 0.00 72 1006.5
20260504042437 51 86 0.9 2.6 0.00 0.00 0.00 71 1006.4
20260504041934 51 268 2.6 4.3 0.00 0.00 0.00 72 1006.4
20260504041430 51 132 4.3 6.1 0.00 0.00 0.00 72 1006.5
20260504040926 51 216 1.7 1.7 0.00 0.00 0.00 72 1006.6
20260504040424 51 240 3.5 7.8 0.00 0.00 0.00 72 1006.7
20260504035920 51 213 0.0 0.9 0.00 0.00 0.00 72 1006.6
20260504035418 51 88 0.9 0.9 0.00 0.00 0.00 71 1006.8